Home   Weather   Chania   Past weeks

Flag for Greece Past Weather in Chania, Crete, Greece — Yesterday and Last 2 Weeks

64 °F

Passing clouds.

Feels Like: 64 °F
Forecast: 69 / 74 °F
Wind: No wind

Location: Souda Airport

Current Time: Oct 24, 2016 at 4:51:10 AM

Latest Report: Oct 24, 2016 at 4:20 AM

Visibility: N/A

Pressure: 30.12 "Hg

Humidity: 100%

Dew Point: 64 °F

Location of ChaniaLocation

Past Weather in Chania — Graph


Chania Temperature Yesterday

Maximum temperature yesterday: 79 °F (at 11:50 AM)
Minimum temperature yesterday: 64 °F (at 7:50 AM)
Average temperature yesterday: 71 °F

High & Low Weather Summary for the Past Weeks

High88 °F (Oct 11, 6:20 PM)100% (Oct 24, 12:50 AM)30.21 "Hg (Oct 24, 12:50 AM)
Low59 °F (Oct 14, 2:50 AM)35% (Oct 11, 6:50 PM)29.77 "Hg (Oct 11, 5:50 PM)
Average69 °F77%30.05 "Hg
* Reported Oct 9 3:20 AM — Oct 24 3:50 AM, Chania, Weather by CustomWeather, © 2016

Note: Actual official high and low records may vary slightly from our data, if they occured in-between our weather recording intervals... More about our weather records


Chania Weather History for the Previous 24 Hours

Scroll right to see more
Time TempWeatherWind HumidityBarometerVisibility
3:50 AM
Mon, Oct 24
64 °FPassing clouds.No wind100%30.12 "HgN/A
3:20 AM64 °FPassing clouds.No wind100%30.12 "HgN/A
2:50 AM64 °FPassing clouds.No wind100%30.12 "HgN/A
2:20 AM66 °FPassing clouds.No wind94%30.12 "HgN/A
1:50 AM66 °FPassing clouds.No wind94%30.12 "HgN/A
1:20 AM66 °FPassing clouds.No wind100%30.12 "HgN/A
12:50 AM66 °FPassing clouds.No wind100%30.12 "HgN/A
12:20 AM68 °FPassing clouds.No wind88%30.12 "HgN/A
11:50 PM
Sun, Oct 23
68 °FPassing clouds.No wind88%30.12 "HgN/A
11:20 PM68 °FPassing clouds.5 mph94%30.12 "HgN/A
10:50 PM68 °FPassing clouds.No wind94%30.12 "HgN/A
10:20 PM68 °FPassing clouds.No wind94%30.12 "HgN/A
9:50 PM68 °FPassing clouds.No wind94%30.09 "HgN/A
9:20 PM70 °FPassing clouds.No wind88%30.09 "HgN/A
8:50 PM70 °FPassing clouds.No wind88%30.09 "HgN/A
8:20 PM70 °FPassing clouds.7 mph88%30.09 "HgN/A
7:50 PM70 °FPassing clouds.7 mph94%30.07 "HgN/A
7:20 PM70 °FPassing clouds.5 mph94%30.07 "HgN/A
6:50 PM72 °FPassing clouds.6 mph88%30.07 "HgN/A
6:20 PM72 °FPartly sunny.8 mph88%30.07 "HgN/A
5:50 PM72 °FBroken clouds.8 mph88%30.07 "HgN/A
5:20 PM73 °FScattered clouds.7 mph83%30.07 "HgN/A
4:50 PM73 °FScattered clouds.9 mph78%30.07 "HgN/A
4:20 PM73 °FPassing clouds.10 mph78%30.04 "HgN/A
3:50 PM75 °FPassing clouds.10 mph78%30.04 "HgN/A
3:20 PM77 °FPassing clouds.8 mph74%30.04 "HgN/A
2:50 PM77 °FPassing clouds.7 mph69%30.04 "HgN/A
2:20 PM77 °FPassing clouds.9 mph74%30.04 "HgN/A
1:50 PM79 °FPassing clouds.9 mph65%30.04 "HgN/A
1:20 PM77 °FPassing clouds.9 mph65%30.07 "HgN/A
12:50 PM77 °FPassing clouds.10 mph74%30.07 "HgN/A
12:20 PM79 °FPassing clouds.9 mph61%30.07 "HgN/A
11:50 AM79 °FPassing clouds.7 mph61%30.07 "HgN/A
11:20 AM77 °FPassing clouds.7 mph65%30.07 "HgN/A
10:50 AM75 °FPassing clouds.7 mph69%30.07 "HgN/A
10:20 AM75 °FPassing clouds.6 mph74%30.07 "HgN/A
9:50 AM73 °FPassing clouds.5 mph78%30.07 "HgN/A
9:20 AM72 °FPassing clouds.6 mph83%30.07 "HgN/A
8:50 AM66 °FPassing clouds.No wind83%30.04 "HgN/A
8:20 AM66 °FPassing clouds.No wind88%30.04 "HgN/A
7:50 AM64 °FPassing clouds.No wind94%30.04 "HgN/A
7:20 AM68 °FPassing clouds.No wind83%30.04 "HgN/A
6:50 AM68 °FPassing clouds.No wind83%30.04 "HgN/A
6:20 AM68 °FPassing clouds.No wind83%30.04 "HgN/A
5:50 AM68 °FPassing clouds.No wind83%30.04 "HgN/A
5:20 AM66 °FPassing clouds.No wind88%30.04 "HgN/A
4:50 AM66 °FPassing clouds.No wind88%30.04 "HgN/A
4:20 AM66 °FPassing clouds.No wind88%30.04 "HgN/A
Weather by CustomWeather, © 2016

See weather overviewHow to use our weather pages